Weather Service Report


511 
ASUS45 KSLC 182010
RWRUT 

UTAH REGIONAL WEATHER ROUNDUP
NATIONAL WEATHER SERVICE SALT LAKE CITY UT
100 PM MST MON DEC 18 2017

UTZ001>011-023>025-182100-

NORTHERN UTAH
  
CITY           SKY/WX    TMP DP  RH WIND       PRES   REMARKS
BRIGHAM CITY   CLOUDY    36  22  58 CALM      30.29F                  
DUGWAY         PTSUNNY   36  24  61 S5        30.27F WCI  32          
HILL AFB       PTSUNNY   35  23  61 CALM      30.26F                  
LOGAN          CLOUDY    39  24  55 NE5       30.26F                  
OGDEN          CLOUDY    35  22  58 CALM      30.26F                  
SALT LAKE CITY PTSUNNY   41  24  51 S5        30.26F                  
TOOELE VALLEY  SUNNY     36  25  64 CALM      30.27F                  
WENDOVER       NOT AVBL                                               
HEBER CITY       N/A     34  19  55 CALM      30.21F                  
WEST JORDAN    SUNNY     37  25  61 SE8       30.27F WCI  30          

$$

UTZ011>015-024>027-182100-

CENTRAL/NORTHEAST UTAH
  
CITY           SKY/WX    TMP DP  RH WIND       PRES   REMARKS
PROVO AIRPORT  PTSUNNY   32  23  69 W5        30.29F WCI  27          
MOAB/CANYONLAN MOSUNNY   38  14  37 NW5       30.22F WCI  34          
DELTA          SUNNY     32  21  64 CALM      30.27F                  
PRICE          SUNNY     39  14  36 CALM      30.18F                  
RICHFIELD      SUNNY     34  18  51 CALM      30.25F                  
ROOSEVELT      CLOUDY    34  16  47 E3        30.23F                  
VERNAL         CLOUDY    36  16  44 S5        30.21F WCI  32          

$$

UTZ013>016-019>022-027-182100-

SOUTHERN UTAH
  
CITY           SKY/WX    TMP DP  RH WIND       PRES   REMARKS
BRYCE CANYON   SUNNY     42  18  37 NE6       30.20F                  
CEDAR CITY     SUNNY     37  18  46 E3        30.23F                  
MILFORD        SUNNY     38  21  50 CALM      30.24F                  
ST GEORGE      CLEAR     45  20  36 CALM      30.24F                  
HANKSVILLE     SUNNY     37  14  38 CALM      30.25F                  
KANAB          SUNNY     48  12  23 SW6       30.23F                  
BLANDING         N/A     43  11  27 S5        30.23F                  

$$

REGIONAL REPORTS     COLORADO/ARIZONA
  
CITY           SKY/WX    TMP DP  RH WIND       PRES   REMARKS
CRAIG, CO      CLOUDY    34  21  59 CALM      30.17F                  
GRAND JUNCTION CLOUDY    36  13  38 CALM      30.21F                  
RIFLE, CO      CLOUDY    34  13  41 CALM      30.21F                  
MONTROSE, CO   CLOUDY    39   9  29 N7        30.20F WCI  34          
CORTEZ, CO     SUNNY     45   7  21 SW8       30.16F                  
COLORADO CITY    N/A    N/A N/A N/A MISG        N/A                   
PAGE, AZ       SUNNY     44  18  35 VRB3      30.21F                  
GRAND CANYON   SUNNY     48   7  18 NW9       30.18F                  
KINGMAN, AZ    SUNNY     53  19  26 N5        30.18F                  
FLAGSTAFF, AZ  SUNNY     48   9  20 NE5       30.16F                  

$$

REGIONAL REPORTS    NEVADA/IDAHO/WYOMING
  
CITY           SKY/WX    TMP DP  RH WIND       PRES   REMARKS
LAS VEGAS, NV  MOSUNNY   54  15  21 VRB3      30.21F                  
ELY, NY        SUNNY     45  24  43 CALM      30.22F                  
ELKO, NV       SUNNY     36  16  44 SW6       30.25F WCI  31          
POCATELLO, ID  CLOUDY    40  28  62 S13       30.16F WCI  32          
BURLEY, ID     CLOUDY    43  23  45 SW6       30.17F                  
FORT BRIDGER,  MOCLDY    39  26  60 W20G26    30.19F WCI  30          
EVANSTON, WY   CLOUDY    34  26  72 SW10      30.19F WCI  26          
ROCK SPRINGS,  CLOUDY    34  21  59 W29G37    30.10F WCI  20          

$$
  

Return to Home page


Western Regional Climate Center, wrcc@dri.edu